Tracking 20724 objects as of 3-Jun-2020
HD Live streaming from Space Station
objects crossing your sky now

STARLINK-1336

Track STARLINK-1336 now!
10-day predictions
STARLINK-1336 is classified as:


NORAD ID: 45557
Int'l Code: 2020-025AC
Perigee: 386.0 km
Apogee: 387.6 km
Inclination: 53.0 °
Period: 92.1 minutes
Semi major axis: 6757 km
RCS: Unknown
Launch date: April 22, 2020
Source: United States (US)
Launch site: AIR FORCE EASTERN TEST RANGE (AFETR)
aabbcc
Your satellite tracking list
Your tracking list is empty




NASA's NSSDC Master Catalog

Two Line Element Set (TLE):
1 45557U 20025AC  20155.16667824  .00010774  00000-0  12321-3 0  9999
2 45557  52.9970 195.5916 0001194  84.9288  42.7971 15.62779532  7194
Source of the keplerian elements: AFSPC